STARLINK-30330 (57636 NORAD) Tracking and Keplerian Element Data

This shows tracking and keplerian element data for the satellite.

Feedback or suggestion? Click here.




ElementValue
Catalog57636
NameSTARLINK-30330
Epoch Orbit279
Epoch Day238.91667824
Epoch Year2023
RAAN95.9304
Inclination43.0008
Eccentricity0.0002794
Argument of Perigee206.3595
Mean Anonmoly216.3462
Mean Motion15.8604686
Decay Rate-0.00915341
L11 57636U 23122E 23238.91667824 -.00915341 00000+0 -39706-2 0 9999
L22 57636 43.0008 95.9304 0002794 206.3595 216.3462 15.86046860 2792



Live tracking and technical data element details for STARLINK-30330 (NORAD 57636). STARLINK-30330 can be tracked NOW for your location showing map with azimuth and elevation plus other details from your city location.







IsCatalogInMostPopularTable: catalog: 57636, numindb: 7
Update: records affected: 1



GetName: 57636 STARLINK-30330

Hit Count: updated at: Tue, 26 Sep 2023 12:37:43 GMT